Torna al catalogo

COSMOS 2251 DEB

AttivoLEO
NORAD 35020·DEBRIS·🇷🇺 Russia

Lanciato Jun 16, 1993 da Plesetsk Cosmodrome

Loading…

Prossimi Passaggi (prossime 24 ore)

TLE

AggiornatoSource: Space-Track

Epoca: Sep 13, 2026, 08:43 UTC

1 35020U 93036AGH 26256.36381658  .00000484  00000-0  94917-4 0  9992
2 35020  74.0471  32.6542 0088514  76.3266 284.7738 14.63159606922545

Traccia COSMOS 2251 DEB in tempo reale con AllMySat

Download on the App Store